Regional Weather Roundup
Issued by NWS

Home | Current Version | Previous Version | Graphics & Text | Print | Product List | Glossary On
Versions: 1 2 3 4 5 6 7 8 9 10 11 12 13 14 15 16 17 18 19 20 21 22 23 24 25 26 27 28 29 30 31 32 33 34 35 36 37 38 39 40 41 42 43 44 45 46 47 48 49 50
000
ASUS43 KMKX 291010
RWRWI

WISCONSIN REGIONAL WEATHER ROUNDUP
NATIONAL WEATHER SERVICE MILWAUKEE/SULLIVAN WI
500 AM CDT SUN MAR 29 2015

NOTE: "FAIR" INDICATES FEW OR NO CLOUDS BELOW 12,000 FEET WITH NO
SIGNIFICANT WEATHER AND/OR OBSTRUCTIONS TO VISIBILITY.

WIZ001-002-006>008-014>016-023>028-291100-
NORTHWEST WISCONSIN

CITY           SKY/WX    TMP DP  RH WIND       PRES   REMARKS
SUPERIOR ARPT  CLOUDY    37  21  53 SW21G26   29.65F WCI  26
ASHLAND        MOCLDY    35  16  45 S15G25    29.74F WCI  25
HAYWARD        CLOUDY    33  16  49 S14       29.75F WCI  23
SIREN          LGT RAIN  35  25  68 S14G21    29.71F WCI  25
CUMBERLAND     CLOUDY    32  19  59 S14G20    29.78F WCI  22
RICE LAKE      PTCLDY    34  19  52 S15G21    29.83F WCI  24
CHETEK         PTCLDY    34  19  53 S8        29.82F WCI  27
LADYSMITH      MOCLDY    32  17  55 S10G17    29.86F WCI  23
EAU CLAIRE     PTCLDY    34  16  47 S10G23    29.84F WCI  26
MENOMONIE      PTCLDY    35  19  52 S13       29.84F WCI  27
NEW RICHMOND   LGT RAIN  33  27  77 S22G29    29.74F WCI  21
OSCEOLA        FLURRIES  34  28  78 S16       29.77F WCI  24
$$

WIZ003>005-009-010-017-018-291100-
NORTH CENTRAL WISCONSIN

CITY           SKY/WX    TMP DP  RH WIND       PRES   REMARKS
MANITOWISH WTR MOCLDY    30  15  53 S10       29.81S WCI  21
ARBOR VITAE    MOCLDY    32  16  51 SW12G20   29.85R WCI  23
WOODRUFF       MOCLDY    32  16  51 SW12G20   29.85R WCI  23
RHINELANDER    MOCLDY    30  13  49 SW9G20    29.86F WCI  22
EAGLE RIVER    MOCLDY    30  11  45 SW9G16    29.85R WCI  22
LAND O LAKES   CLOUDY    31  14  49 S8G18     29.83S WCI  23
PHILLIPS       PTCLDY    31  15  50 S12       29.84R WCI  22
TOMAHAWK       MOCLDY    29  15  55 S5        29.89R WCI  24
MEDFORD        MOCLDY    29  17  59 S12       29.88S WCI  20
MERRILL        MOCLDY    31  15  51 SW9G18    29.90S WCI  23
$$

WIZ029-030-035-036-043>047-291100-
CENTRAL WISCONSIN

CITY           SKY/WX    TMP DP  RH WIND       PRES   REMARKS
WAUSAU         MOCLDY    31  15  52 S12       29.91F WCI  22
MOSINEE        MOCLDY    30  16  55 S15       29.93F WCI  19
MARSHFIELD     MOCLDY    31  14  49 S14       29.92F WCI  21
STEVENS POINT  MOCLDY    29  13  50 S12       29.95F WCI  20
WAUPACA        MOCLDY    33  15  48 S12G18    29.98F WCI  24
WAUTOMA        MOCLDY    32  15  49 S8        29.99F WCI  25
WISC RAPIDS    MOCLDY    31  12  45 S8        29.97F WCI  23
CAMP DOUGLAS   MOCLDY    32  16  51 S10       29.96F WCI  24
$$

WIZ011>013-019>022-031-037>040-048>050-291100-
NORTHEAST WISCONSIN

CITY           SKY/WX    TMP DP  RH WIND       PRES   REMARKS
ANTIGO         MOCLDY    29  15  57 S13       29.90F WCI  18
SHAWANO        MOCLDY    33  17  53 S5        29.96F WCI  28
OCONTO         MOCLDY    30  17  59 S8        29.99F WCI  22
STURGEON BAY   MOCLDY    30  14  51 S15G21    30.03F WCI  19
GREEN BAY      MOCLDY    31  19  61 S10       30.01F WCI  22
MANITOWOC      CLOUDY    30  17  58 S15       30.06F WCI  19
APPLETON       MOCLDY    30  16  55 S15       30.00F WCI  19
CLINTONVILLE   MOCLDY    32  18  55 S12       29.98F WCI  23
OSHKOSH        MOCLDY    30  17  58 S17G23    30.01F WCI  18
$$

WIZ032>034-041-042-053>061-291100-
SOUTHWEST WISCONSIN

CITY           SKY/WX    TMP DP  RH WIND       PRES   REMARKS
LA CROSSE      MOCLDY    36  18  48 S16G25    29.94F WCI  26
SPARTA         MOCLDY    33  16  50 S10G16    29.97R WCI  24
VIROQUA        MOCLDY    31  19  63 S13       29.96S WCI  21
BOSCOBEL       MOCLDY    33  18  53 S8G20     30.01F WCI  26
PRAIRIE DU CHI PTCLDY    34  17  51 S7        30.02R WCI  28
PLATTEVILLE    PTCLDY    31  20  64 SE17      30.01F WCI  20
$$

WIZ056-057-062-063-064-067-068-291100-
SOUTH CENTRAL WISCONSIN

CITY           SKY/WX    TMP DP  RH WIND       PRES   REMARKS
REEDSBURG      MOCLDY    31  18  56 S14G21    29.99F WCI  21
BARABOO/DELLS  MOCLDY    32  16  53 SW15G21   29.99F WCI  21
LONE ROCK      MOCLDY    32  18  56 S13       30.02F WCI  22
MINERAL POINT  PTCLDY    32  19  59 S13       30.00F WCI  22
MADISON        MOCLDY    32  17  54 S15G22    30.03F WCI  22
MIDDLETON      MOCLDY    32  18  55 S14       30.03F WCI  22
WATERTOWN      MOCLDY    29  18  64 S10       30.05F WCI  19
MONROE         PTCLDY    30  21  69 S18G24    30.03F WCI  18
JANESVILLE     PTCLDY    32  18  55 S13       30.08F WCI  22
$$

WIZ051-052-058>065-066-070>072-291100-
SOUTHEAST WISCONSIN

CITY           SKY/WX    TMP DP  RH WIND       PRES   REMARKS
MILWAUKEE      CLOUDY    29  13  51 S12       30.11F WCI  19
WAUKESHA       CLOUDY    28  14  54 S8        30.10F WCI  20
MILWAUKEE/TIMM CLOUDY    30  12  47 S15       30.11S WCI  19
RACINE         MOCLDY    30  12  47 S10       30.14F WCI  21
BURLINGTON     MOCLDY    28  15  59 S9        30.11S WCI  19
KENOSHA        MOCLDY    29  14  53 S13       30.12F WCI  19
FOND DU LAC    MOCLDY    31  16  54 S14       30.03F WCI  21
SHEBOYGAN      CLOUDY    28  15  58 S12       30.07F WCI  18
WEST BEND      CLOUDY    30  14  51 S9G16     30.07F WCI  22
JUNEAU         CLOUDY    29  17  60 S14       30.04F WCI  18
$$

LSZ147-162-291100-
LAKE SUPERIOR

STATION/POSITION TIME  TEMP    WIND        PRES    WAVE
                       AIR SEA DIR/SP/G            HT/PER
                 (UTC) (F)     (DEG/KT/KT) (MB)    (FT/S)
DEVILS ISLAND    1000   36     190/ 14/ 21 1006.0F
PORT WING        0900   37     180/ 11/ 21 1008.1F
SAXON HARBOR     1000   37     200/  9/ 21 1007.1F
$$

LMZ867-665-643>646-291100-
LAKE MICHIGAN

STATION/POSITION TIME  TEMP    WIND        PRES    WAVE
                       AIR SEA DIR/SP/G            HT/PER
                 (UTC) (F)     (DEG/KT/KT) (MB)    (FT/S)
NORTHPORT PIER   0900   31     180/  4/ 12 1016.9F
SISTER BAY       0817   30     190/ 16/ 20   N/A
SHEBOYGAN LAKESH 1000   32     190/ 19/ 24 1019.2F
PORT WASHINGTON  0940   31     210/  8/ 14 1020.0F
MILWAUKEE LAKESH 0900   31     200/ 13/ 15   N/A
KENOSHA   LAKESH 1000   31     190/ 14/ 17 1020.3F
$$

TC  - TEMPERATURE IN CELSIUS
VSB - VISIBILITY IN STATUTE MILES
WCI - WIND CHILL INDEX
HX  - HEAT INDEX




USA.gov is the U.S. government's official web portal to all federal, state and local government web resources and services.